Hourly Data Report for October 18, 2014

All times are specified in Local Standard Time (LST). Add 1 hour to adjust for Daylight Saving Time where and when it is observed.

OTTAWA INTL A
ONTARIO

45°19'00.000" N
75°40'00.000" W
114.90 m
6106001
71628
YOW

Download Data

Hourly Data (October 2014)
Hourly Data Report for October 18, 2014
Temp Definition
°C
Dew Point Temp Definition
°C
Rel Hum Definition
%
Wind Dir Definition
10's deg

Wind Spd Definition
km/h
Visibility Definition
km
Stn Press Definition
kPa
Hmdx Definition


Wind Chill Definition


Weather Definition


TIME
00:00 Legend Double Dagger 13.7 11.8 88 17 11 24.1 98.43     LegendNANA
01:00 Legend Double Dagger 13.3 11.7 90 19 9 16.1 98.40     Cloudy
02:00 Legend Double Dagger 13.5 11.9 90 20 10 16.1 98.38     LegendNANA
03:00 Legend Double Dagger 12.7 11.5 92 19 8 16.1 98.36     LegendNANA
04:00 Legend Double Dagger 12.1 11.2 94 17 7 12.9 98.36     Cloudy
05:00 Legend Double Dagger 12.3 11.4 94 19 9 12.9 98.37     LegendNANA
06:00 Legend Double Dagger 12.2 11.4 95 20 7 12.9 98.37     LegendNANA
07:00 Legend Double Dagger 11.8 11.2 96 18 8 16.1 98.38     Mainly Clear
08:00 Legend Double Dagger 13.4 12.0 91 21 13 12.9 98.42     LegendNANA
09:00 Legend Double Dagger 13.9 11.3 84 22 17 12.9 98.45     LegendNANA
10:00 Legend Double Dagger 11.8 10.2 90 25 20 16.1 98.47     Mostly Cloudy
11:00 Legend Double Dagger 10.8 9.2 90 32 29 16.1 98.57     Rain
12:00 Legend Double Dagger 11.1 8.0 81 32 26 24.1 98.62     LegendNANA
13:00 Legend Double Dagger 9.7 7.2 84 33 27 12.9 98.71     Cloudy
14:00 Legend Double Dagger 9.0 7.1 88 32 27 12.9 98.81     Rain
15:00 Legend Double Dagger 8.8 6.9 88 32 26 16.1 98.90     Rain
16:00 Legend Double Dagger 8.8 5.0 77 32 28 24.1 99.02     Rain
17:00 Legend Double Dagger 7.8 3.3 73 32 31 24.1 99.14     LegendNANA
18:00 Legend Double Dagger 7.3 3.0 74 34 27 24.1 99.24     LegendNANA
19:00 Legend Double Dagger 7.1 3.5 78 32 26 24.1 99.34     Cloudy
20:00 Legend Double Dagger 6.3 3.6 83 31 30 24.1 99.43     LegendNANA
21:00 Legend Double Dagger 6.5 2.0 73 32 23 24.1 99.52     LegendNANA
22:00 Legend Double Dagger 6.1 0.7 68 32 37 24.1 99.57     Cloudy
23:00 Legend Double Dagger 4.8 -0.2 70 32 23 24.1 99.63     LegendNANA

Notes on Data Quality.

Legend

  • E = Estimated
  • M = Missing
  • NA = Not Available
  • ‡ = Partner data that is not subject to review by the National Climate Archives
Date modified: